When you browse on this site, cookies collect data to enhance your experience and personalize the content and advertising you see.
Visit our Privacy Policy to learn more. By continuing to use the site, you agree to this use of cookies and data.
  • In Czech Republic
  • List of Countries
  • For 7 days
  • Water Temperature
  • Satellite Maps
  • Weather Map
  • Weather Widgets
  • user-avatar
    Login

    Hourly Weather Samroung

    Today, 26 April, Friday

    Time Temperature Precipitation Wind Pressure Humidity
    00:00 +29°C° 0.1 mm 1 mps 755 mmHg 89%
    01:00 +29°C° 0 mm 1 mps 754 mmHg 90%
    02:00 +29°C° 0.2 mm 1 mps 754 mmHg 90%
    03:00 +29°C° 0.2 mm 1 mps 754 mmHg 91%
    04:00 +29°C° 0.2 mm 1 mps 754 mmHg 91%
    05:00 +29°C° 0 mm 1 mps 754 mmHg 89%
    06:00 +30°C° 0 mm 1 mps 754 mmHg 87%
    07:00 +29°C° 0 mm 0 mps 755 mmHg 83%
    08:00 +31°C° 0.1 mm 0 mps 755 mmHg 76%
    09:00 +34°C° 0.1 mm 1 mps 755 mmHg 68%
    10:00 +36°C° 0.1 mm 1 mps 755 mmHg 61%
    11:00 +36°C° 0.1 mm 1 mps 755 mmHg 61%
    12:00 +37°C° 0.1 mm 2 mps 754 mmHg 60%
    13:00 +37°C° 0.1 mm 2 mps 754 mmHg 59%
    14:00 +36°C° 0.2 mm 2 mps 753 mmHg 63%
    15:00 +36°C° 0.2 mm 3 mps 753 mmHg 66%
    16:00 +35°C° 0.2 mm 3 mps 752 mmHg 69%
    17:00 +34°C° 0.3 mm 2 mps 753 mmHg 75%
    18:00 +31°C° 0.3 mm 2 mps 753 mmHg 81%
    19:00 +30°C° 0.3 mm 2 mps 753 mmHg 86%
    20:00 +30°C° 0.3 mm 2 mps 753 mmHg 88%
    21:00 +30°C° 0.3 mm 2 mps 754 mmHg 89%
    22:00 +29°C° 0.3 mm 2 mps 754 mmHg 90%
    23:00 +29°C° 0.2 mm 2 mps 754 mmHg 90%

    Tomorrow, 27 April, Saturday

    Time Temperature Precipitation Wind Pressure Humidity
    00:00 +29°C° 0.2 mm 2 mps 755 mmHg 91%
    01:00 +29°C° 0.2 mm 2 mps 755 mmHg 91%
    02:00 +29°C° 0.7 mm 1 mps 755 mmHg 91%
    03:00 +29°C° 0.7 mm 1 mps 754 mmHg 92%
    04:00 +29°C° 0.7 mm 1 mps 754 mmHg 92%
    05:00 +29°C° 0.5 mm 1 mps 755 mmHg 90%
    06:00 +29°C° 0.5 mm 1 mps 755 mmHg 89%
    07:00 +30°C° 0.5 mm 1 mps 755 mmHg 87%
    08:00 +32°C° 0 mm 1 mps 755 mmHg 77%
    09:00 +34°C° 0 mm 1 mps 756 mmHg 68%
    10:00 +36°C° 0 mm 1 mps 756 mmHg 59%
    11:00 +38°C° 0 mm 2 mps 756 mmHg 54%
    12:00 +39°C° 0 mm 2 mps 755 mmHg 49%
    13:00 +39°C° 0 mm 3 mps 755 mmHg 45%
    14:00 +38°C° 0.2 mm 3 mps 754 mmHg 51%
    15:00 +37°C° 0.2 mm 3 mps 754 mmHg 57%
    16:00 +35°C° 0.2 mm 3 mps 753 mmHg 62%
    17:00 +34°C° 0.6 mm 2 mps 753 mmHg 68%
    18:00 +32°C° 0.6 mm 2 mps 754 mmHg 74%
    19:00 +30°C° 0.6 mm 2 mps 754 mmHg 79%
    20:00 +30°C° 0.5 mm 2 mps 755 mmHg 81%
    21:00 +30°C° 0.5 mm 1 mps 755 mmHg 83%
    22:00 +30°C° 0.5 mm 1 mps 756 mmHg 85%
    23:00 +29°C° 0.5 mm 1 mps 756 mmHg 86%

    Day after tomorrow, 28 April, Sunday

    Time Temperature Precipitation Wind Pressure Humidity
    00:00 +29°C° 0.5 mm 1 mps 756 mmHg 87%
    01:00 +27°C° 0.5 mm 0 mps 756 mmHg 88%
    02:00 +27°C° 0.6 mm 0 mps 755 mmHg 89%
    03:00 +27°C° 0.6 mm 0 mps 755 mmHg 90%
    04:00 +26°C° 0.6 mm 0 mps 754 mmHg 91%
    05:00 +29°C° 0.2 mm 1 mps 755 mmHg 88%
    06:00 +30°C° 0.2 mm 1 mps 755 mmHg 86%
    07:00 +30°C° 0.2 mm 1 mps 756 mmHg 83%
    08:00 +32°C° 0.2 mm 2 mps 756 mmHg 77%
    09:00 +34°C° 0.2 mm 2 mps 756 mmHg 71%
    10:00 +36°C° 0.2 mm 3 mps 757 mmHg 64%
    11:00 +36°C° 1.2 mm 3 mps 756 mmHg 63%
    12:00 +36°C° 1.2 mm 3 mps 756 mmHg 62%
    13:00 +37°C° 1.2 mm 3 mps 755 mmHg 61%
    14:00 +35°C° 2.2 mm 3 mps 755 mmHg 66%
    15:00 +34°C° 2.2 mm 2 mps 754 mmHg 72%
    16:00 +32°C° 2.2 mm 2 mps 754 mmHg 77%
    17:00 +31°C° 0.9 mm 2 mps 754 mmHg 80%
    18:00 +30°C° 0.9 mm 2 mps 754 mmHg 83%
    19:00 +30°C° 0.9 mm 2 mps 755 mmHg 86%
    20:00 +29°C° 0.2 mm 1 mps 755 mmHg 86%
    21:00 +29°C° 0.2 mm 1 mps 756 mmHg 87%
    22:00 +29°C° 0.2 mm 1 mps 756 mmHg 87%
    23:00 +29°C° 0 mm 1 mps 756 mmHg 87%

    29 April, Monday

    Time Temperature Precipitation Wind Pressure Humidity
    00:00 +29°C° 0 mm 1 mps 755 mmHg 88%
    01:00 +29°C° 0 mm 1 mps 755 mmHg 88%
    02:00 +29°C° 0 mm 1 mps 755 mmHg 89%
    03:00 +29°C° 0 mm 1 mps 754 mmHg 89%
    04:00 +27°C° 0 mm 0 mps 754 mmHg 90%
    05:00 +27°C° 0.3 mm 0 mps 754 mmHg 89%
    06:00 +27°C° 0.3 mm 0 mps 755 mmHg 88%
    07:00 +28°C° 0.3 mm 0 mps 755 mmHg 86%
    08:00 +32°C° 0.1 mm 1 mps 756 mmHg 77%
    09:00 +34°C° 0.1 mm 1 mps 756 mmHg 68%
    10:00 +36°C° 0.1 mm 1 mps 757 mmHg 60%
    11:00 +36°C° 0.9 mm 1 mps 756 mmHg 60%
    12:00 +37°C° 0.9 mm 2 mps 755 mmHg 60%
    13:00 +37°C° 0.9 mm 2 mps 755 mmHg 60%
    14:00 +36°C° 1.3 mm 2 mps 754 mmHg 62%
    15:00 +36°C° 1.3 mm 2 mps 754 mmHg 65%
    16:00 +35°C° 1.3 mm 2 mps 753 mmHg 67%
    17:00 +33°C° 0.8 mm 1 mps 753 mmHg 71%
    18:00 +32°C° 0.8 mm 1 mps 754 mmHg 76%
    19:00 +30°C° 0.8 mm 1 mps 754 mmHg 81%
    20:00 +30°C° 0.3 mm 1 mps 755 mmHg 83%
    21:00 +30°C° 0.3 mm 1 mps 755 mmHg 86%
    22:00 +30°C° 0.3 mm 1 mps 755 mmHg 88%
    23:00 +29°C° 0 mm 1 mps 755 mmHg 89%

    30 April, Tuesday

    Time Temperature Precipitation Wind Pressure Humidity
    00:00 +29°C° 0 mm 1 mps 755 mmHg 90%
    01:00 +29°C° 0 mm 1 mps 755 mmHg 91%
    02:00 +29°C° 0 mm 1 mps 754 mmHg 91%
    03:00 +29°C° 0 mm 1 mps 754 mmHg 92%
    04:00 +28°C° 0 mm 1 mps 754 mmHg 92%
    05:00 +29°C° 0 mm 1 mps 755 mmHg 91%
    06:00 +30°C° 0 mm 1 mps 755 mmHg 89%
    07:00 +30°C° 0 mm 1 mps 756 mmHg 87%
    08:00 +32°C° 0.1 mm 1 mps 756 mmHg 81%
    09:00 +33°C° 0.1 mm 1 mps 756 mmHg 75%
    10:00 +35°C° 0.1 mm 2 mps 757 mmHg 69%
    11:00 +36°C° 0.6 mm 2 mps 756 mmHg 67%
    12:00 +36°C° 0.6 mm 2 mps 755 mmHg 65%
    13:00 +36°C° 0.6 mm 3 mps 754 mmHg 63%
    14:00 +36°C° 1 mm 3 mps 754 mmHg 67%
    15:00 +35°C° 1 mm 3 mps 753 mmHg 70%
    16:00 +34°C° 1 mm 2 mps 753 mmHg 73%
    17:00 +32°C° 0.5 mm 2 mps 753 mmHg 77%
    18:00 +31°C° 0.5 mm 2 mps 754 mmHg 81%
    19:00 +30°C° 0.5 mm 2 mps 754 mmHg 85%
    20:00 +30°C° 0.4 mm 2 mps 754 mmHg 87%
    21:00 +29°C° 0.4 mm 2 mps 755 mmHg 88%
    22:00 +29°C° 0.4 mm 1 mps 755 mmHg 89%
    23:00 +29°C° 0 mm 1 mps 755 mmHg 90%

    1 May, Wednesday

    Time Temperature Precipitation Wind Pressure Humidity
    00:00 +29°C° 0 mm 1 mps 754 mmHg 91%
    01:00 +29°C° 0 mm 1 mps 754 mmHg 91%
    02:00 +29°C° 0 mm 1 mps 754 mmHg 91%
    03:00 +29°C° 0 mm 1 mps 754 mmHg 91%
    04:00 +28°C° 0 mm 1 mps 754 mmHg 91%
    05:00 +29°C° 0.8 mm 1 mps 754 mmHg 89%
    06:00 +30°C° 0.8 mm 1 mps 755 mmHg 87%
    07:00 +30°C° 0.8 mm 1 mps 756 mmHg 84%
    08:00 +32°C° 1.3 mm 2 mps 756 mmHg 78%
    09:00 +34°C° 1.3 mm 2 mps 756 mmHg 72%
    10:00 +35°C° 1.3 mm 2 mps 756 mmHg 66%
    11:00 +36°C° 0.1 mm 2 mps 756 mmHg 62%
    12:00 +37°C° 0.1 mm 3 mps 755 mmHg 58%
    13:00 +37°C° 0.1 mm 3 mps 754 mmHg 55%
    14:00 +37°C° 0.2 mm 3 mps 754 mmHg 57%
    15:00 +36°C° 0.2 mm 3 mps 753 mmHg 59%
    16:00 +36°C° 0.2 mm 3 mps 753 mmHg 61%
    17:00 +34°C° 0 mm 3 mps 753 mmHg 67%
    18:00 +33°C° 0 mm 3 mps 753 mmHg 72%
    19:00 +30°C° 0 mm 3 mps 754 mmHg 78%
    20:00 +30°C° 0 mm 2 mps 754 mmHg 79%
    21:00 +30°C° 0 mm 2 mps 754 mmHg 81%
    22:00 +30°C° 0 mm 2 mps 755 mmHg 82%
    23:00 +29°C° 0 mm 2 mps 754 mmHg 84%
    Show more